TimeEDT,TemperatureF,Dew PointF,Humidity,Sea Level PressureIn,VisibilityMPH,Wind Direction,Wind SpeedMPH,Gust SpeedMPH,PrecipitationIn,Events,Conditions,WindDirDegrees,DateUTC
12:15 AM,53.8,50.5,89,30.09,10.0,Calm,Calm,-,N/A,,Clear,0,2013-05-16 04:15:00
12:55 AM,54.1,52.2,93,30.09,10.0,Calm,Calm,-,N/A,,Clear,0,2013-05-16 04:55:00
1:15 AM,54.0,52.3,94,30.09,10.0,Calm,Calm,-,N/A,,Clear,0,2013-05-16 05:15:00
1:35 AM,52.2,50.4,94,30.09,10.0,Calm,Calm,-,N/A,,Clear,0,2013-05-16 05:35:00
1:55 AM,52.3,50.9,95,30.08,10.0,Calm,Calm,-,N/A,,Clear,0,2013-05-16 05:55:00
2:15 AM,52.0,50.5,95,30.08,10.0,Calm,Calm,-,N/A,,Clear,0,2013-05-16 06:15:00
2:35 AM,49.8,48.6,95,30.08,10.0,Calm,Calm,-,N/A,,Clear,0,2013-05-16 06:35:00
2:55 AM,50.5,50.0,98,30.08,5.0,Calm,Calm,-,N/A,,Clear,0,2013-05-16 06:55:00
3:15 AM,50.0,49.5,98,30.08,7.0,Calm,Calm,-,N/A,,Clear,0,2013-05-16 07:15:00
3:35 AM,51.1,50.2,97,30.07,10.0,Calm,Calm,-,N/A,,Clear,0,2013-05-16 07:35:00
3:55 AM,50.2,49.5,97,30.07,7.0,Calm,Calm,-,N/A,,Clear,0,2013-05-16 07:55:00
4:15 AM,50.0,49.3,97,30.07,5.0,Calm,Calm,-,N/A,,Clear,0,2013-05-16 08:15:00
4:35 AM,49.6,48.7,97,30.08,10.0,Calm,Calm,-,N/A,,Clear,0,2013-05-16 08:35:00
4:55 AM,50.2,49.3,97,30.08,10.0,Calm,Calm,-,N/A,,Clear,0,2013-05-16 08:55:00
5:35 AM,51.1,50.4,97,30.08,7.0,Calm,Calm,-,N/A,,Clear,0,2013-05-16 09:35:00
5:55 AM,49.8,48.9,97,30.08,7.0,Calm,Calm,-,N/A,,Clear,0,2013-05-16 09:55:00
6:15 AM,50.2,49.3,97,30.08,10.0,Calm,Calm,-,N/A,,Clear,0,2013-05-16 10:15:00
6:35 AM,51.6,50.4,95,30.09,10.0,Calm,Calm,-,N/A,,Clear,0,2013-05-16 10:35:00
6:55 AM,50.5,49.8,97,30.09,7.0,Calm,Calm,-,N/A,,Clear,0,2013-05-16 10:55:00
7:15 AM,51.4,50.4,96,30.10,10.0,Calm,Calm,-,N/A,,Clear,0,2013-05-16 11:15:00
7:35 AM,52.7,51.6,96,30.10,10.0,Calm,Calm,-,N/A,,Clear,0,2013-05-16 11:35:00
7:55 AM,52.9,51.6,95,30.11,10.0,Calm,Calm,-,N/A,,Clear,0,2013-05-16 11:55:00
8:15 AM,54.0,52.3,94,30.12,10.0,Calm,Calm,-,N/A,,Clear,0,2013-05-16 12:15:00
8:35 AM,55.2,52.3,90,30.12,10.0,Calm,Calm,-,N/A,,Clear,0,2013-05-16 12:35:00
8:55 AM,56.3,53.4,90,30.11,10.0,Calm,Calm,-,N/A,,Clear,0,2013-05-16 12:55:00
9:15 AM,58.6,54.1,85,30.11,10.0,Calm,Calm,-,N/A,,Clear,0,2013-05-16 13:15:00
9:35 AM,60.4,54.9,82,30.12,10.0,Calm,Calm,-,N/A,,Clear,0,2013-05-16 13:35:00
9:55 AM,61.9,55.4,79,30.12,10.0,Calm,Calm,-,N/A,,Clear,0,2013-05-16 13:55:00
10:15 AM,63.9,55.8,75,30.12,10.0,Calm,Calm,-,N/A,,Clear,0,2013-05-16 14:15:00
10:35 AM,65.8,56.8,73,30.12,10.0,Calm,Calm,-,N/A,,Clear,0,2013-05-16 14:35:00
10:55 AM,66.4,55.2,67,30.12,10.0,West,3.5,-,N/A,,Clear,270,2013-05-16 14:55:00
11:15 AM,66.7,57.0,71,30.12,10.0,SSW,3.5,-,N/A,,Clear,210,2013-05-16 15:15:00
11:35 AM,68.0,57.2,68,30.12,10.0,SSW,3.5,-,N/A,,Clear,210,2013-05-16 15:35:00
11:55 AM,68.9,56.5,65,30.12,10.0,Calm,Calm,-,N/A,,Clear,0,2013-05-16 15:55:00
12:15 PM,69.1,57.4,66,30.11,10.0,Calm,Calm,-,N/A,,Clear,0,2013-05-16 16:15:00
12:35 PM,69.3,56.8,65,30.10,10.0,Calm,Calm,-,N/A,,Clear,0,2013-05-16 16:35:00
12:55 PM,69.8,57.2,64,30.10,10.0,Calm,Calm,-,N/A,,Clear,0,2013-05-16 16:55:00
1:15 PM,71.6,57.6,61,30.10,10.0,Calm,Calm,-,N/A,,Clear,0,2013-05-16 17:15:00
1:35 PM,73.0,57.7,59,30.08,10.0,West,4.6,-,N/A,,Clear,270,2013-05-16 17:35:00
1:55 PM,75.2,56.8,53,30.07,10.0,SSE,5.8,-,N/A,,Clear,150,2013-05-16 17:55:00
2:15 PM,76.6,56.3,49,30.07,10.0,SE,5.8,-,N/A,,Clear,130,2013-05-16 18:15:00
2:35 PM,78.3,55.2,45,30.06,10.0,SSE,4.6,-,N/A,,Clear,150,2013-05-16 18:35:00
3:15 PM,80.1,55.0,42,30.05,10.0,SW,11.5,16.1,N/A,,Clear,230,2013-05-16 19:15:00
3:35 PM,78.8,54.7,43,30.05,10.0,SW,4.6,-,N/A,,Clear,220,2013-05-16 19:35:00
3:55 PM,81.0,55.6,42,30.04,10.0,West,9.2,-,N/A,,Clear,260,2013-05-16 19:55:00
4:15 PM,80.1,55.4,43,30.03,10.0,WSW,9.2,-,N/A,,Clear,240,2013-05-16 20:15:00
4:35 PM,80.2,55.8,43,30.03,10.0,SW,8.1,-,N/A,,Clear,220,2013-05-16 20:35:00
4:55 PM,80.2,54.7,41,30.03,10.0,West,6.9,-,N/A,,Scattered Clouds,270,2013-05-16 20:55:00
5:15 PM,79.3,55.8,44,30.03,10.0,WSW,6.9,-,N/A,,Scattered Clouds,240,2013-05-16 21:15:00
5:35 PM,79.9,54.9,42,30.03,10.0,SSW,4.6,-,N/A,,Scattered Clouds,210,2013-05-16 21:35:00
6:15 PM,80.6,55.6,42,30.02,10.0,SW,5.8,-,N/A,,Scattered Clouds,230,2013-05-16 22:15:00
6:35 PM,79.3,56.1,45,30.02,10.0,WSW,6.9,-,N/A,,Clear,240,2013-05-16 22:35:00
6:55 PM,75.7,57.0,52,30.01,10.0,West,4.6,-,N/A,,Scattered Clouds,280,2013-05-16 22:55:00
7:15 PM,77.0,57.7,51,30.01,10.0,West,6.9,-,N/A,,Scattered Clouds,270,2013-05-16 23:15:00
7:35 PM,75.2,57.7,54,30.01,10.0,West,4.6,-,N/A,,Clear,270,2013-05-16 23:35:00
7:55 PM,72.5,57.4,59,30.03,10.0,Calm,Calm,-,N/A,,Clear,0,2013-05-16 23:55:00
8:15 PM,70.9,58.3,64,30.03,10.0,Calm,Calm,-,N/A,,Clear,0,2013-05-17 00:15:00
8:35 PM,68.0,58.1,71,30.04,10.0,Calm,Calm,-,N/A,,Clear,0,2013-05-17 00:35:00
8:55 PM,65.7,57.4,75,30.05,10.0,Calm,Calm,-,N/A,,Clear,0,2013-05-17 00:55:00
9:15 PM,64.9,57.4,76,30.05,10.0,Calm,Calm,-,N/A,,Scattered Clouds,0,2013-05-17 01:15:00
9:35 PM,63.1,56.8,80,30.06,10.0,Calm,Calm,-,N/A,,Overcast,0,2013-05-17 01:35:00
9:55 PM,62.8,57.7,84,30.06,10.0,Calm,Calm,-,N/A,,Mostly Cloudy,0,2013-05-17 01:55:00
10:15 PM,61.3,56.5,84,30.07,10.0,Calm,Calm,-,N/A,,Scattered Clouds,0,2013-05-17 02:15:00
10:35 PM,60.6,57.0,88,30.08,10.0,Calm,Calm,-,N/A,,Clear,0,2013-05-17 02:35:00
10:55 PM,59.4,56.1,89,30.08,10.0,Calm,Calm,-,N/A,,Clear,0,2013-05-17 02:55:00
11:15 PM,58.1,55.8,92,30.08,10.0,Calm,Calm,-,N/A,,Clear,0,2013-05-17 03:15:00
11:35 PM,58.6,55.4,89,30.08,10.0,Calm,Calm,-,N/A,,Clear,0,2013-05-17 03:35:00
11:55 PM,58.5,54.9,88,30.08,10.0,Calm,Calm,-,N/A,,Scattered Clouds,0,2013-05-17 03:55:00